Regional Weather Roundup
Issued by NWS

Home | Current Version | Previous Version | Graphics & Text | Print | Product List | Glossary On
Versions: 1 2 3 4 5 6 7 8 9 10 11 12 13 14 15 16 17 18 19 20 21 22 23 24 25 26 27 28 29 30 31 32 33 34 35 36 37 38 39 40 41 42 43 44 45 46 47 48 49 50
000
ASUS45 KTFX 291204
RWRMT
MONTANA HOURLY WEATHER ROUNDUP
NATIONAL WEATHER SERVICE GREAT FALLS MT
604 AM MDT SUN MAR 29 2015

NOTE: "FAIR" INDICATES FEW OR NO CLOUDS BELOW 12000 FEET WITH NO
SIGNIFICANT WEATHER AND/OR OBSTRUCTIONS TO VISIBILITY.

* THESE STATIONS ARE NOT UNDER NWS QUALITY CONTROL. THEY DO NOT
   REPORT WEATHER SUCH AS PRECIPITATION OR FOG.

MTZ001>007-043-291300-
WEST OF THE DIVIDE
CITY           SKY/WX    TMP DP  RH WIND       PRES   REMARKS
KALISPELL      PTCLDY    39  34  82 S7        30.24F WCI  34
MISSOULA       PTCLDY    36  28  73 SE5       30.32S WCI  32
BUTTE          PTCLDY    28  19  69 CALM      30.31R
MULLAN PASS    MOCLDY    30  27  89 SW8       30.24F WCI  22
* ESSEX        N/A       34  33  96 E1         N/A
* LINCOLN      N/A       38  27  65 SW5G15     N/A   WCI  34
* LOOKOUT PASS N/A       32  31  96 SW1        N/A
* POLSON       N/A       35  32  89 N/A        N/A
* SEELEY LAKE  N/A       30  28  92 NE2        N/A
* THOMP F APT  MOCLDY    29  14  53 NE4G9      N/A
$$

MTZ008-052>055-291300-
SOUTHWEST MONTANA
CITY           SKY/WX    TMP DP  RH WIND       PRES   REMARKS
BOZEMAN        CLEAR     25  18  75 E5        30.30S WCI  19
DILLON         PTCLDY    30  19  64 S8        30.31R WCI  22
* W YELLOWSTON CLEAR     19  16  88 N/A        N/A
* BOULDER HILL N/A       34  18  52 S6         N/A   WCI  29
* HOMESTAKE PS N/A       29  19  66 W4G11      N/A
* MONIDA PASS  N/A       22  15  74 W2         N/A
* RAYNOLDS PAS N/A       22   6  50 S4         N/A
* WHITEHALL    N/A       31  19  61 SW4G9      N/A
* WISE RIVER   N/A       26  20  78 S2         N/A
$$

MTZ009>010-012-014-046-048-049-054-291300-
EAST SLOPES AND CENTRAL MONTANA
CITY           SKY/WX    TMP DP  RH WIND       PRES   REMARKS
CUT BANK       PTCLDY    41  28  60 W23       30.08F
GREAT FALLS    PTCLDY    39  27  62 SW15      30.17R WCI  31
HELENA         MOCLDY    41  23  49 W6        30.26S
* DEARBORN     N/A       45  27  49 SE1G9      N/A
* EAST GLACIER N/A       38  28  67 W18        N/A   WCI  28
* MONARCH      N/A       36  22  57 SW14G19    N/A   WCI  27
* PENDROY      N/A       36  23  59 W10        N/A   WCI  29
* ROGERS PASS  N/A       35  25  67 S6G22      N/A   WCI  30
* SAINT MARY   N/A       41  28  60 SW8G17     N/A
$$

MTZ011-013-016-021-035-040-045-047-050-051-291300-
NORTH CENTRAL MONTANA
CITY           SKY/WX    TMP DP  RH WIND       PRES   REMARKS
HAVRE          CLEAR     36  32  85 SW14      30.11F WCI  27
LEWISTOWN      CLEAR     36  28  73 NW3       30.18R
* N BAR RANCH  CLEAR     32  27  82 N5        30.18R WCI  27
* CHESTER      N/A       28  25  89 S1         N/A
* DENTON       N/A       35  29  79 SW12       N/A   WCI  27
* GEYSER       N/A       39  26  60 SW18       N/A   WCI  30
* JUDITH GAP   N/A       39  22  51 NW9G14     N/A   WCI  33
* LOMA         N/A       35  28  76 S4         N/A
$$

MTZ017>020-022>027-061-062-291300-
NORTHEAST MONTANA
CITY           SKY/WX    TMP DP  RH WIND       PRES   REMARKS
GLASGOW        PTCLDY    34  32  92 W7        30.10R WCI  28
GLENDIVE       CLEAR     34  30  85 W13       30.13R WCI  25
JORDAN         CLEAR     36  34  92 W7        30.14R WCI  30
SIDNEY         CLEAR     36  32  85 W10       30.08R WCI  29
WOLF POINT     CLEAR     36  32  85 W10       30.10R WCI  29
* BEAVER HILL  N/A       35  33  92 W16        N/A   WCI  25
* CIRCLE       N/A       36  33  89 N/A        N/A
* LINDSAY DVD  N/A       35  32  89 W11G16     N/A   WCI  27
* NAVAJO       N/A       34  33  96 W19G24     N/A   WCI  23
* SACO         N/A       34  32  92 W5         N/A   WCI  29
$$

MTZ028>042-056>058-291300-
SOUTHCENTRAL AND SOUTHEAST MONTANA
CITY           SKY/WX    TMP DP  RH WIND       PRES   REMARKS
BAKER          CLEAR     36 N/A N/A W14       30.11R WCI  27
BILLINGS       CLEAR     43  21  42 NW13      30.21R
LIVINGSTON     CLEAR     37  21  52 W13       30.25R WCI  29
MILES CITY     FAIR      37  36  96 W7        30.16S WCI  32
* ALZADA       N/A       41  34  76 W17G23     N/A
* HYSHAM       N/A       39  28  65 SW2        N/A
* LAME DEER    N/A       39  29  67 NW9G15     N/A   WCI  33
* REED POINT   N/A       44  22  42 W8         N/A
* ROSCOE HILL  N/A       34   6  31 SE12       N/A   WCI  25
$$

REGIONAL REPORTS...DAKOTAS
CITY           SKY/WX    TMP DP  RH WIND       PRES   REMARKS
WILLISTON      CLEAR     36  32  85 NW13      30.02R WCI  27
DICKINSON      CLEAR     34  30  85 NW10      30.02R WCI  26
CROSBY         CLEAR     32  32 100 W12       29.99R WCI  23
WATFORD CITY   CLEAR     36  32  85 W10       30.01R WCI  29
BISMARCK       CLOUDY    39  34  82 NW24G37   29.91R WCI  28
GRAND FORKS    CLOUDY    39  34  82 N31G44    29.59R WCI  27
FARGO          RAIN      43  37  79 NW32G43   29.55R
BUFFALO SD     CLEAR     37  32  82 NW24      30.03R WCI  26
RAPID CITY     PTCLDY    45  28  51 NW44G64   30.03R
$$

REGIONAL REPORTS...WYOMING/IDAHO/WASHINGTON
CITY           SKY/WX    TMP DP  RH WIND       PRES   REMARKS
GILLETTE       CLEAR     36  28  73 W14       30.21R WCI  27
SHERIDAN       MOCLDY    37  25  62 NW8       30.23R WCI  31
CODY           CLEAR     41  16  36 W6        30.23S
YELLOWSTONE LA PTCLDY    18  12  77 NW3       30.33S
SALMON         MOCLDY    27  21  78 CALM      30.36S
MULLAN PASS    MOCLDY    30  27  89 SW8       30.24S WCI  22
SAND POINT     PTCLDY    36  36 100 CALM      30.28R
SPOKANE        CLOUDY    39  34  82 S7        30.26S WCI  34

$$



USA.gov is the U.S. government's official web portal to all federal, state and local government web resources and services.